[[{"header":{"parameterUnit":"m.s-1","parameterCategory":1,"la1":30.2992,"la2":30.254,"lo1":-89.0895,"lo2":-89.0443,"dy":0.0025,"dx":0.0025,"nx":19,"ny":19,"refTime":"2026-05-04T09:00:00:Z","depth":0,"parameterNumber":2,"parameterNumberName":"U-component_of_WINDS"},"data":[0,0,0,0.1892,0.1891,0.183,0.1829,0.1761,0.176,0,0,0,0,0,0,0,0,0,0,0,0.1918,0.1918,0.1892,0.1891,0.183,0.1829,0.1761,0.176,0,0,0,0,0,0,0,0,0,0,0,0.1918,0.1918,0.1917,0.1891,0.183,0.1829,0.1761,0.1803,0,0,0,0,0,0,0,0,0,0,0.1861,0.1893,0.1918,0.1917,0.189,0.183,0.1829,0.1805,0.1801,0.1793,0,0.179,0,0.1774,0.1756,0.1756,0,0,0,0.1885,0.1897,0.1873,0.1917,0.189,0.183,0.1855,0.1802,0.1797,0.1787,0.1789,0.1786,0.1773,0.1756,0.1756,0.1736,0.1736,0,0,0.1888,0.1911,0.1877,0.187,0.1882,0.1857,0.1854,0.1799,0.1802,0.1789,0.1784,0.1772,0.1756,0.1755,0.1736,0.1736,0,0,0,0.1902,0.1913,0.1891,0.1873,0.1862,0.1856,0.1851,0.1804,0.1795,0.1784,0.1771,0.1755,0.1755,0.1736,0.1736,0.1768,0,0,0,0.1904,0.1921,0.1893,0.1906,0.1863,0.1833,0.1858,0.1799,0.1792,0.1772,0.1755,0.1754,0.1736,0.1736,0.1767,0.1779,0,0,0,0.1919,0.1923,0.1917,0.1907,0.1882,0.1833,0.1821,0.1797,0.1785,0.1756,0.1754,0.1735,0.1736,0.1766,0.1777,0.178,0,0,0,0.1942,0.1946,0.1918,0.1918,0.1883,0.1854,0.1821,0.1798,0.1777,0.1755,0.1736,0.1736,0.1765,0.1776,0.1779,0.1787,0.1793,0,0,0.196,0.1949,0.1947,0.192,0.1902,0.1861,0.1847,0.1806,0.1782,0.1752,0.1752,0.1767,0.1777,0.178,0.1816,0.1821,0,0,0,0.1961,0.1959,0.195,0.1931,0.1901,0.1874,0.1833,0.1817,0.1791,0.1772,0.1768,0.1774,0.1774,0.1777,0.1781,0.178,0.1738,0.1738,0.1738,0.2019,0.1988,0.1982,0.1944,0.1926,0.1883,0.1865,0.1836,0.181,0.181,0.1801,0.1827,0.1831,0.1833,0.1832,0.1802,0.1803,0.1803,0.1803,0.2042,0.2035,0.2,0.1982,0.1948,0.1932,0.1889,0.1871,0.185,0.1831,0.183,0.1812,0.184,0.1837,0.1805,0.1805,0.1804,0.1804,0.1804,0.2077,0.2068,0.2049,0.2019,0.1998,0.1958,0.1939,0.1909,0.188,0.1879,0.1866,0.1865,0.186,0.1875,0.1875,0.1875,0.1875,0.1875,0.1876,0.212,0.2098,0.2086,0.2053,0.2037,0.2011,0.1966,0.1948,0.1921,0.19,0.19,0.1873,0.1848,0.1843,0.1877,0.1877,0.1876,0.1876,0.1876,0.2155,0.2142,0.2125,0.2108,0.2065,0.2046,0.2008,0.1974,0.1954,0.1946,0.1918,0.1905,0.1892,0.1888,0.1883,0.1926,0.1926,0.1926,0.1926,0.2184,0.2174,0.2149,0.2124,0.2096,0.2059,0.2038,0.2003,0.1964,0.1949,0.1939,0.1929,0.1927,0.1915,0.1911,0.1906,0.1953,0.1953,0.1953,0.2203,0.2189,0.2178,0.2141,0.2105,0.2074,0.2053,0.2024,0.1977,0.1953,0.1937,0.1936,0.192,0.1917,0.1895,0.1889,0.1879,0,0]},{"header":{"parameterUnit":"m.s-1","parameterCategory":1,"la1":30.2992,"la2":30.254,"lo1":-89.0895,"lo2":-89.0443,"dy":0.0025,"dx":0.0025,"nx":19,"ny":19,"refTime":"2026-05-04T09:00:00:Z","depth":0,"parameterNumber":3,"parameterNumberName":"V-component_of_WINDS"},"data":[0,0,0,6.3903,6.3906,6.4007,6.4008,6.4137,6.4138,0,0,0,0,0,0,0,0,0,0,0,6.3876,6.3877,6.3903,6.3906,6.4007,6.4008,6.4137,6.4138,0,0,0,0,0,0,0,0,0,0,0,6.3876,6.3877,6.3878,6.3906,6.4007,6.4008,6.4137,6.4059,0,0,0,0,0,0,0,0,0,0,6.396,6.3939,6.3876,6.3878,6.3907,6.4007,6.4008,6.4056,6.4064,6.4092,0,6.412,0,6.4131,6.4147,6.4148,0,0,0,6.3903,6.3932,6.3957,6.3878,6.3908,6.4007,6.3961,6.406,6.407,6.4103,6.4122,6.4127,6.4134,6.4148,6.4149,6.4324,6.4325,0,0,6.3897,6.3895,6.395,6.3963,6.3951,6.3957,6.3964,6.4066,6.4085,6.4122,6.413,6.4136,6.4149,6.415,6.4323,6.4325,0,0,0,6.3883,6.3891,6.3914,6.3958,6.3977,6.396,6.3968,6.4081,6.4088,6.4131,6.4137,6.415,6.4151,6.4322,6.4324,6.437,0,0,0,6.388,6.3883,6.3912,6.3911,6.3975,6.4031,6.398,6.4081,6.4093,6.4137,6.415,6.4153,6.4321,6.4323,6.4367,6.4392,0,0,0,6.3868,6.3882,6.3898,6.3911,6.3955,6.4029,6.4043,6.4084,6.4097,6.4148,6.4153,6.4321,6.4323,6.4364,6.4387,6.4438,0,0,0,6.3855,6.3937,6.3899,6.3992,6.3954,6.4058,6.4042,6.4119,6.4168,6.415,6.4322,6.4324,6.4363,6.4384,6.4434,6.448,6.4499,0,0,6.3957,6.3949,6.4004,6.3973,6.4083,6.4042,6.4158,6.4204,6.4209,6.4285,6.4289,6.4368,6.4387,6.4437,6.4607,6.4622,0,0,0,6.4035,6.4075,6.4104,6.4152,6.4191,6.4224,6.4253,6.4269,6.4334,6.4249,6.44,6.4411,6.4441,6.4462,6.4475,6.45,6.4334,6.4334,6.4333,6.4176,6.418,6.4271,6.4287,6.4333,6.4361,6.4398,6.4425,6.4414,6.4449,6.4472,6.4575,6.4601,6.461,6.4636,6.4496,6.4497,6.4497,6.4497,6.4325,6.4382,6.4366,6.4448,6.445,6.4518,6.4548,6.4538,6.4599,6.4559,6.4585,6.454,6.4627,6.465,6.45,6.45,6.4499,6.4499,6.4499,6.4418,6.4446,6.4466,6.4535,6.4587,6.4599,6.4659,6.4658,6.4658,6.4684,6.4707,6.4706,6.4705,6.4695,6.4695,6.4695,6.4696,6.4696,6.4696,6.4507,6.4528,6.4581,6.4628,6.4658,6.4697,6.4725,6.4753,6.4784,6.4778,6.4779,6.4763,6.4636,6.4603,6.4702,6.4701,6.47,6.47,6.4699,6.4657,6.4623,6.4704,6.4735,6.4788,6.4839,6.4837,6.4895,6.4918,6.4948,6.4926,6.4832,6.4823,6.4813,6.4786,6.4926,6.4926,6.4926,6.4926,6.4735,6.4731,6.4814,6.4862,6.4908,6.4915,6.5003,6.5025,6.5041,6.5055,6.5034,6.4999,6.4988,6.4985,6.4971,6.4946,6.5124,6.5124,6.5124,6.4827,6.4827,6.4905,6.4923,6.4964,6.4999,6.5082,6.5135,6.5146,6.5132,6.5065,6.5057,6.4999,6.4981,6.4966,6.4944,6.4899,0,0]}]]